TITAN 3A TRANSTAGE R/B, 1359

Orbit data source: Space-Track

TITAN 3A TRANSTAGE R/B, 1359 is space debris in LEO originally from a launch on Thu, 06 May 1965 UTC via a TITAN IIIA launch vehicle from the Air Force Eastern Test Range (AFETR). Debris objects in space refer to the collection of defunct objects orbiting the Earth. Examples of debris include non-operational satellites, rocket bodies, and fragments generated from explosions, collisions, or faulty payload assembly.

Loading next visibility...
Identifier
1359, 1965-034A
Orbit
LEO
Last TLE update
7 hours ago
Origin
Manufacturer
Martin Marietta
Mission
Spacecraft
Bus & Motor
Unknown
Mass
2,302 kg wet, 124 kg dry
Launch date (UTC)
1965-05-06 (60 years ago)
Launch vehicle
TITAN IIIA
Launch site
Air Force Eastern Test Range (AFETR)
Object type
Payload
Rocket body
Debris
Shape & HBR
Cyl + 2 Nozzle, 5.99 m
Radar Cross Section
18.358 m², Large (>1 m²)

Expand to show TLE details & history

TLE from 7 hours ago
0 TITAN 3A TRANSTAGE R/B
1 01359U 65034A   25128.93479138  .00000003  00000-0 -15241-2 0  9997
2 01359  32.1321 339.5657 0495583 235.4804 119.7911  9.17133689 11547
Epoch: 2025-05-08T22:26Z
Definitive object data (Epoch: 2025-05-08T22:26:05.975Z)
Latitude
0.00001°
Longitude
136.04266°
Altitude
3,516.193 km
Speed
6.265 km/s
True Right ascension
22h 38m 15s
True Declination
0° 00' 00"
Sunlit
Object was in daylight at TLE epoch
Visualization TLE readout
Latitude
-16.48283°
Longitude
-16.55077°
Altitude
2,826.084 km
Speed
6.73 km/s
Apparent Right ascension
11h 22m 59s
Apparent Declination
-57° 32' 15"
Sunlit
Object is in full shadow
Visualization observer readout
Local Sidereal Time
13:23:54
Azimuth
195.964° SSW
Elevation
-10.703°
Doppler factor
1
Orbital elements
Apogee altitude
3,743.23 km
Perigee altitude
2,787.403 km
Semi-major axis
9,643.453 km
Eccentricity
0.0495583
Inclination
32.1321°
RAAN
339.5657°
Arg. of periapsis
235.4804°
True anomaly
124.56671°
Mean anomaly
119.7911°
Eccentric anomaly
122.19401°
Mean motion
2.29189 °/min
BSTAR
-0.0015241
Orbital period
157.08 mins
Loading maneuver chart data...
Loading SW <> Apogee altitude chart data...
Loading historical data...
Loading historical data...
Loading historical data...
Loading historical data...
Loading historical data...
Loading historical data...
Loading historical data...
Other satellites on launch #34 in the year 1965 (1965-05-06 UTC)

TITAN 3A TRANSTAGE R/B Visibility forecast

Observer location: undefined°, undefined°

Span
Click to sort rows by Start time (UTC) header in descending order
Start Az.
Max El. time (UTC)
Max El. Az.
Max El.
End time (UTC)
End Az.
25 mins2025-05-09 14:07:16.551Z173.82° S2025-05-09 14:19:16.551Z135.942° SSE18.83°2025-05-09 14:32:16.551Z96.72° ESE
38 mins2025-05-09 16:51:16.551Z220.87° SW2025-05-09 17:10:16.551Z149.927° SSE37.828°2025-05-09 17:29:16.551Z85.414° E
39 mins2025-05-09 19:42:16.551Z254.548° W2025-05-09 20:02:16.551Z173.725° S43.05°2025-05-09 20:21:16.551Z99.98° ESE
36 mins2025-05-09 22:35:16.551Z272.619° WNW2025-05-09 22:54:16.551Z200.24° SSW39.474°2025-05-09 23:11:16.551Z131.125° SE
24 mins2025-05-10 01:31:16.551Z265.09° W2025-05-10 01:43:16.551Z223.589° SW21.852°2025-05-10 01:55:16.551Z177.884° S
|